Location: Newark
(55.4390°N, 25.0170°E)
Time: 03:23:51
(UTC+00:00)

Envisat - Pass Details

Date: 13 March 2021
Orbit: 764 x 766 km, 98.1° (Epoch: 18 April)

Event Time Altitude Azimuth Distance (km) Brightness Sun altitude
Rises 03:43:31 0° 18° (NNE) 3,248 6.6 -8.9°
Reaches altitude 10° 03:45:55 10° 24° (NNE) 2,317 5.9 -8.5°
Maximum altitude 03:50:52 49° 99° (E) 988 4.1 -7.8°
Drops below altitude 10° 03:55:46 10° 174° (S) 2,299 5.5 -7.1°
Sets 03:58:09 0° 180° (S) 3,220 6.2 -6.8°
